Location: Unspecified
(45.8670°S, 0.0000°E)
Time: 15:11:46
(UTC+00:00)

Envisat - Visible Passes

Search period start: 05 December 2019 00:00
Search period end: 15 December 2019 00:00
Orbit: 764 x 766 km, 98.1° (Epoch: 05 December)

Date Brightness Start Highest point End Pass type
(mag) Time Alt. Az. Time Alt. Az. Time Alt. Az.
05 Dec 5.9 20:18:05 10° SSW 20:21:52 21° WSW 20:25:39 10° WNW visible
07 Dec 6.3 20:44:36 10° SSW 20:47:01 13° SW 20:49:25 10° W visible
10 Dec 6.1 20:32:47 10° SSW 20:35:54 16° WSW 20:39:00 10° W visible
13 Dec 6.0 20:21:08 10° SSW 20:24:46 20° WSW 20:28:22 10° WNW visible
